[[{"header":{"parameterUnit":"m.s-1","parameterCategory":1,"la1":30.2991,"la2":30.254,"lo1":-89.0895,"lo2":-89.0444,"dy":0.0017,"dx":0.0017,"nx":28,"ny":28,"refTime":"2025-08-08T21:00:00:Z","depth":0,"parameterNumber":2,"parameterNumberName":"U-component_of_WINDS"},"data":[0,0,0,0,0,0,0,0,0,0,0,0,0,0,0,0,0,0,0,0,0,0,0,0,0,0,0,0,0,0,0,0,0,0,0,0,0,0,0,0,0,0,0,0,0,0,0,0,0,0,0,0,0,0,0,0,0,0,-3.6436,-3.6435,0,-3.6401,-3.6401,-3.64,-3.6291,-3.6288,-3.6286,-3.6284,-3.625,-3.6252,-3.6253,0,0,0,0,0,0,0,0,0,0,0,0,0,-3.6411,-3.6412,-3.6436,-3.6435,-3.6435,-3.6401,-3.6401,-3.64,-3.6291,-3.6288,-3.6285,-3.6283,-3.625,-3.6251,-3.6253,0,0,0,0,0,0,0,0,0,0,0,0,0,-3.6404,-3.6412,-3.6436,-3.6376,-3.6371,-3.6401,-3.6401,-3.64,-3.6292,-3.6288,-3.6285,-3.6281,-3.6249,-3.6251,-3.6253,-3.6339,0,0,-3.626,-3.626,0,0,0,0,0,0,0,0,-3.6404,-3.6405,-3.6386,-3.6381,-3.6374,-3.6346,-3.6379,-3.638,-3.6293,-3.6322,-3.6284,-3.6279,-3.6285,-3.6284,-3.6286,-3.6337,-3.6336,-3.626,-3.6261,-3.6262,-3.6262,0,0,0,0,0,0,0,-3.6405,-3.6406,-3.6422,-3.6386,-3.6379,-3.6353,-3.6348,-3.6379,-3.6325,-3.6319,-3.6311,-3.6308,-3.6282,-3.6284,-3.6284,-3.6335,-3.626,-3.6261,-3.6263,-3.6264,-3.6456,-3.646,0,0,0,0,0,0,-3.6414,-3.6407,-3.6423,-3.6421,-3.6381,-3.6356,-3.635,-3.6359,-3.6324,-3.6315,-3.6312,-3.6303,-3.6282,-3.6282,-3.6283,-3.638,-3.6262,-3.6264,-3.6265,-3.6452,-3.6457,-3.6461,0,0,0,0,0,0,-3.6413,-3.6416,-3.6424,-3.6412,-3.6411,-3.636,-3.6371,-3.636,-3.6362,-3.6318,-3.6308,-3.6324,-3.6279,-3.628,-3.6326,-3.6377,-3.6265,-3.6267,-3.6448,-3.6454,-3.6459,-3.6576,0,0,0,0,0,0,-3.6413,-3.6417,-3.6448,-3.6413,-3.6412,-3.6468,-3.6374,-3.6362,-3.6366,-3.6355,-3.6327,-3.6319,-3.6277,-3.6323,-3.6328,-3.6378,-3.6268,-3.6443,-3.645,-3.6457,-3.6568,-3.6586,-3.6601,0,0,0,0,0,-3.6413,-3.6482,-3.645,-3.6452,-3.6449,-3.6471,-3.647,-3.6419,-3.6371,-3.6402,-3.6374,-3.632,-3.6372,-3.6329,-3.6333,-3.6385,-3.6439,-3.6448,-3.6457,-3.656,-3.6582,-3.66,0,0,0,0,0,0,-3.6524,-3.6477,-3.644,-3.65,-3.6491,-3.6452,-3.649,-3.6444,-3.6448,-3.6438,-3.6375,-3.637,-3.6425,-3.641,-3.6363,-3.6466,-3.6397,-3.6407,-3.6474,-3.6494,-3.6511,-3.6512,-3.627,0,0,0,0,0,-3.6556,-3.6576,-3.6534,-3.6592,-3.6588,-3.6541,-3.6548,-3.651,-3.6497,-3.6493,-3.6467,-3.6458,-3.6472,-3.6483,-3.6493,-3.6566,-3.6558,-3.6604,-3.6621,-3.6634,-3.6643,-3.6681,-3.6701,-3.649,-3.649,-3.649,0,0,-3.6622,-3.6598,-3.6615,-3.6613,-3.6601,-3.6624,-3.6538,-3.6566,-3.6582,-3.6497,-3.6538,-3.652,-3.6506,-3.6566,-3.6591,-3.6555,-3.67,-3.6645,-3.6657,-3.6658,-3.6692,-3.6712,-3.673,-3.6496,-3.6495,-3.6494,0,0,-3.6752,-3.6737,-3.6783,-3.6773,-3.6756,-3.6724,-3.6735,-3.6704,-3.6689,-3.6729,-3.6666,-3.6686,-3.6712,-3.6704,-3.6703,-3.6834,-3.6785,-3.684,-3.6926,-3.6963,-3.698,-3.6994,-3.7041,-3.7058,-3.6849,-3.685,-3.685,0,-3.6836,-3.6867,-3.6813,-3.6845,-3.6847,-3.6771,-3.6818,-3.6811,-3.6799,-3.6802,-3.6762,-3.6793,-3.6778,-3.6835,-3.6867,-3.6869,-3.6881,-3.6842,-3.6982,-3.6996,-3.7009,-3.7052,-3.707,-3.6856,-3.6856,-3.6855,-3.6854,0,-3.6971,-3.6995,-3.7034,-3.7024,-3.703,-3.707,-3.7022,-3.7036,-3.6998,-3.6971,-3.7014,-3.6994,-3.6999,-3.701,-3.6974,-3.7063,-3.7041,-3.6993,-3.6921,-3.7036,-3.7076,-3.7092,-3.6866,-3.6864,-3.6862,-3.686,0,0,-3.7169,-3.7129,-3.7144,-3.7139,-3.7115,-3.7133,-3.717,-3.7175,-3.7188,-3.7183,-3.7212,-3.7237,-3.7192,-3.7192,-3.7155,-3.7188,-3.7293,-3.7135,-3.7134,-3.7165,-3.739,-3.7426,-3.7446,-3.7261,-3.7264,-3.7266,-3.7391,0,-3.7292,-3.7352,-3.7305,-3.7373,-3.7395,-3.7324,-3.7357,-3.7347,-3.7323,-3.7339,-3.7313,-3.7331,-3.7271,-3.727,-3.73,-3.7274,-3.7337,-3.7264,-3.7288,-3.729,-3.7292,-3.7467,-3.7504,-3.7622,-3.7406,-3.7409,-3.7411,0,-3.7443,-3.7444,-3.7515,-3.7488,-3.7496,-3.7525,-3.7527,-3.7542,-3.753,-3.7511,-3.7512,-3.7466,-3.7502,-3.7433,-3.7482,-3.7434,-3.7441,-3.743,-3.7433,-3.7432,-3.7356,-3.7469,-3.7659,-3.7677,-3.7435,-3.7433,-3.7431,0,-3.7579,-3.7599,-3.7644,-3.7642,-3.7612,-3.7635,-3.7624,-3.7608,-3.7614,-3.7616,-3.762,-3.7627,-3.763,-3.7637,-3.7594,-3.7548,-3.7649,-3.7576,-3.7634,-3.7635,-3.7657,-3.7655,-3.7849,-3.7664,-3.7664,-3.7663,-3.7663,0,-3.7721,-3.7767,-3.7705,-3.7733,-3.7783,-3.773,-3.7781,-3.7762,-3.7749,-3.7773,-3.7713,-3.7737,-3.768,-3.7699,-3.7666,-3.7712,-3.7714,-3.77,-3.769,-3.7704,-3.7706,-3.7707,-3.7697,-3.7668,-3.7667,-3.7666,-3.7665,0,-3.788,-3.7841,-3.7885,-3.7854,-3.7847,-3.7885,-3.7859,-3.7884,-3.7857,-3.7888,-3.7892,-3.785,-3.7869,-3.7828,-3.7841,-3.7819,-3.7883,-3.7862,-3.7887,-3.788,-3.794,-3.7935,-3.814,-3.8164,-3.7965,-3.7967,-3.7968,0,-3.7973,-3.8006,-3.7979,-3.799,-3.7982,-3.8001,-3.8008,-3.7958,-3.7967,-3.7957,-3.7983,-3.7997,-3.8005,-3.8038,-3.8009,-3.8019,-3.7996,-3.8068,-3.7997,-3.8011,-3.7997,-3.7995,-3.7998,-3.8082,-3.8084,-3.8086,-3.8088,0,-3.814,-3.812,-3.8131,-3.8136,-3.8145,-3.8147,-3.8145,-3.8158,-3.8105,-3.8119,-3.8136,-3.8143,-3.8156,-3.8171,-3.8174,-3.8164,-3.8118,-3.8111,-3.8124,-3.8138,-3.8151,-3.8144,-3.7926,-3.8106,-3.8104,-3.8103,-3.8102,-3.8101,-3.8268,-3.8295,-3.828,-3.8295,-3.8289,-3.8288,-3.831,-3.8287,-3.8301,-3.8307,-3.8277,-3.8303,-3.8291,-3.8291,-3.8286,-3.8305,-3.8273,-3.8293,-3.8298,-3.8303,-3.8313,-3.815,-3.8306,-3.8305,-3.8305,-3.8304,-3.8304,0,-3.8432,-3.842,-3.8434,-3.8433,-3.8445,-3.8401,-3.8397,-3.841,-3.8433,-3.8426,-3.8435,-3.8457,-3.8471,-3.8445,-3.8455,-3.8475,-3.8455,-3.848,-3.8477,-3.8475,-3.8341,-3.8328,-3.8496,-3.8496,-3.8496,-3.8496,-3.8496,-3.8496,-3.8519,-3.8562,-3.8541,-3.8581,-3.8568,-3.8591,-3.8593,-3.8593,-3.8587,-3.8614,-3.8625,-3.8608,-3.8593,-3.8602,-3.8614,-3.8606,-3.8612,-3.8645,-3.8629,-3.8504,-3.8485,-3.8467,-3.8454,-3.8647,-3.8647,-3.8762,-3.8763,-3.8764]},{"header":{"parameterUnit":"m.s-1","parameterCategory":1,"la1":30.2991,"la2":30.254,"lo1":-89.0895,"lo2":-89.0444,"dy":0.0017,"dx":0.0017,"nx":28,"ny":28,"refTime":"2025-08-08T21:00:00:Z","depth":0,"parameterNumber":3,"parameterNumberName":"V-component_of_WINDS"},"data":[0,0,0,0,0,0,0,0,0,0,0,0,0,0,0,0,0,0,0,0,0,0,0,0,0,0,0,0,0,0,0,0,0,0,0,0,0,0,0,0,0,0,0,0,0,0,0,0,0,0,0,0,0,0,0,0,0,0,2.1209,2.1209,0,2.117,2.117,2.1169,2.1167,2.1167,2.1168,2.1168,2.1124,2.1122,2.1121,0,0,0,0,0,0,0,0,0,0,0,0,0,2.1279,2.1278,2.121,2.1209,2.1209,2.117,2.117,2.1169,2.1167,2.1167,2.1168,2.1168,2.1124,2.1122,2.112,0,0,0,0,0,0,0,0,0,0,0,0,0,2.1245,2.1278,2.121,2.1203,2.1202,2.117,2.117,2.1169,2.1167,2.1167,2.1168,2.1169,2.1125,2.1123,2.112,2.1091,0,0,2.1113,2.1112,0,0,0,0,0,0,0,0,2.1247,2.1243,2.1204,2.1203,2.1202,2.1174,2.1178,2.1143,2.1166,2.118,2.1168,2.1169,2.114,2.1136,2.1127,2.1089,2.1088,2.1113,2.1111,2.111,2.1109,0,0,0,0,0,0,0,2.125,2.1244,2.1194,2.1204,2.1202,2.1201,2.1197,2.1171,2.1156,2.1179,2.1178,2.1174,2.1139,2.1129,2.1126,2.1087,2.1113,2.1111,2.1109,2.1108,2.1023,2.1022,0,0,0,0,0,0,2.1254,2.1246,2.1195,2.1193,2.1227,2.1199,2.1194,2.1182,2.1157,2.1153,2.1173,2.1174,2.1133,2.1129,2.1124,2.1088,2.111,2.1108,2.1106,2.1024,2.1023,2.1022,0,0,0,0,0,0,2.1255,2.1249,2.1197,2.1219,2.1213,2.1197,2.1183,2.1181,2.1171,2.1153,2.115,2.1166,2.1134,2.1128,2.11,2.1087,2.1107,2.1105,2.1025,2.1023,2.1022,2.1017,0,0,0,0,0,0,2.1257,2.125,2.1239,2.1219,2.1211,2.1174,2.1183,2.118,2.1168,2.1168,2.1145,2.1142,2.1134,2.1103,2.1097,2.1084,2.1103,2.1026,2.1024,2.1023,2.1018,2.1015,2.1013,0,0,0,0,0,2.126,2.1239,2.1239,2.1233,2.1198,2.1173,2.1168,2.116,2.1167,2.1156,2.1144,2.1143,2.109,2.1101,2.1094,2.1079,2.1026,2.1025,2.1023,2.1019,2.1016,2.1013,0,0,0,0,0,0,2.1256,2.1236,2.1236,2.1208,2.1192,2.1173,2.1158,2.1157,2.1139,2.114,2.1129,2.1124,2.1096,2.1085,2.1098,2.105,2.1059,2.1055,2.1058,2.1055,2.1053,2.1055,2.1101,0,0,0,0,0,2.1253,2.1235,2.1217,2.1194,2.1187,2.1174,2.1163,2.1158,2.1141,2.1134,2.112,2.1102,2.1081,2.1068,2.1048,2.1017,2.1011,2.1003,2.1001,2.0999,2.0996,2.0978,2.0974,2.1016,2.1016,2.1016,0,0,2.1244,2.1231,2.122,2.1193,2.1181,2.1161,2.1168,2.1148,2.1133,2.113,2.1103,2.1092,2.1072,2.1042,2.1028,2.1032,2.0983,2.0997,2.0996,2.0993,2.0976,2.0972,2.0968,2.1015,2.1015,2.1015,0,0,2.1218,2.1207,2.1186,2.1174,2.1155,2.1147,2.1142,2.1123,2.1116,2.1089,2.1086,2.1068,2.1033,2.1018,2.1006,2.0976,2.0974,2.0969,2.0956,2.0939,2.0936,2.0933,2.092,2.0916,2.0967,2.0967,2.0967,0,2.1209,2.1181,2.1175,2.1155,2.1143,2.1141,2.1119,2.1107,2.1082,2.1074,2.1079,2.1035,2.1021,2.0987,2.098,2.0971,2.0963,2.0971,2.0937,2.0934,2.0931,2.0919,2.0915,2.0966,2.0966,2.0966,2.0966,0,2.1171,2.1151,2.1137,2.1114,2.1101,2.1079,2.1069,2.1056,2.1053,2.1044,2.1016,2.0999,2.0976,2.0968,2.0964,2.0933,2.0936,2.0939,2.0948,2.0927,2.0915,2.0911,2.0965,2.0966,2.0966,2.0966,0,0,2.114,2.1116,2.111,2.11,2.1079,2.1064,2.1042,2.102,2.1009,2.0992,2.0973,2.0944,2.0946,2.0933,2.0927,2.0912,2.0888,2.0917,2.0916,2.0911,2.0852,2.0848,2.0843,2.0887,2.0886,2.0886,2.0853,0,2.1111,2.1074,2.1068,2.1035,2.1016,2.1015,2.0996,2.0981,2.0972,2.0954,2.0944,2.0923,2.0929,2.0921,2.0906,2.0894,2.0875,2.0896,2.0867,2.0866,2.0871,2.0838,2.0834,2.0804,2.0849,2.0848,2.0847,0,2.1072,2.1055,2.1021,2.1003,2.0995,2.0978,2.0957,2.0941,2.0923,2.0918,2.0903,2.09,2.0876,2.0887,2.0854,2.0868,2.0856,2.0848,2.0847,2.0842,2.0854,2.0831,2.0794,2.0789,2.0841,2.0841,2.0842,0,2.1051,2.102,2.0996,2.0987,2.0966,2.0954,2.0944,2.0928,2.0915,2.0897,2.0888,2.0868,2.0855,2.0839,2.0829,2.0838,2.0796,2.0806,2.0789,2.0789,2.0779,2.0779,2.0738,2.0774,2.0774,2.0774,2.0774,0,2.1018,2.0997,2.0986,2.097,2.0946,2.094,2.0915,2.0906,2.0891,2.0873,2.0871,2.0853,2.0843,2.0823,2.0816,2.0789,2.0784,2.0777,2.0775,2.0777,2.0777,2.0767,2.0768,2.0773,2.0773,2.0774,2.0774,0,2.0991,2.0983,2.0955,2.0938,2.0933,2.0916,2.0901,2.0885,2.0877,2.0854,2.0848,2.0835,2.0812,2.0801,2.0773,2.0768,2.0736,2.0736,2.0742,2.0741,2.0724,2.0726,2.0674,2.0666,2.0709,2.0708,2.0708,0,2.0969,2.0953,2.0934,2.0923,2.0913,2.0894,2.0882,2.0875,2.0861,2.0841,2.0827,2.0805,2.0786,2.075,2.0737,2.0715,2.0713,2.0697,2.071,2.0711,2.0711,2.0712,2.0709,2.0694,2.0693,2.0693,2.0693,0,2.0932,2.0929,2.0912,2.0893,2.0878,2.0862,2.0847,2.0837,2.0828,2.0813,2.079,2.0776,2.0748,2.0725,2.0703,2.0691,2.069,2.0689,2.0684,2.0684,2.0688,2.0684,2.0734,2.069,2.069,2.069,2.0691,2.0691,2.0905,2.0891,2.0875,2.0856,2.0844,2.083,2.0814,2.0805,2.0786,2.0764,2.0761,2.0736,2.0719,2.0689,2.0677,2.0657,2.066,2.0653,2.0651,2.0649,2.0647,2.0693,2.0653,2.0653,2.0653,2.0653,2.0653,0,2.0867,2.0857,2.0839,2.0819,2.0803,2.0806,2.0789,2.0775,2.0754,2.0739,2.0721,2.0695,2.0673,2.0659,2.0636,2.0623,2.0622,2.0617,2.0617,2.0614,2.0646,2.0652,2.0619,2.0619,2.0619,2.0619,2.0619,2.0619,2.0844,2.0819,2.0814,2.0783,2.0773,2.075,2.0741,2.0727,2.0715,2.0686,2.0669,2.066,2.0645,2.0621,2.0601,2.0597,2.0588,2.0583,2.0579,2.0609,2.0612,2.0615,2.0621,2.0582,2.0582,2.0549,2.0549,2.0549]}]]